Dewpoint
2 1 0 1 3 4 5 5 4 3 3 2 -3 -11 -12 -14 -16 -18 -17 -11 -4 -7 -11 -12 -14 -14 -9 -7 -10 -14 -15 -16 -15 -15 -17 -10 -4 -5 -3 -7 -6 -4 -5 -8 -7 -5 -3
-32 -32 -31 -30 -28 -15 -6 -1 -0 2 5 5 5 1 -5 -10 -13 -13 -15 -18 -18 -5 -9 -11 -11 -8 -7 -4 -11 -11 -11 -11 -14 -15 -13 -7 -5 -7 -8 -8 -8 -8 -6 -7 -6 -5 -4
-27 -28 -27 -27 -28 -27 -27 -25 -23 -19 -4 2 1 3 4 3 -2 -8 -13 -15 -16 -19 -4 -11 -9 -7 -4 -7 -8 -9 -11 -14 -14 -12 -6 -4 -5 -6 -8 -6 -8 -7 -4 -4 -4 -4 -4
-23 -18 -21 -23 -18 -14 -11 -13 -12 -12 -9 -10 -13 -14 -11 -9 -1 3 -3 -10 -15 -17 -7 -10 -10 -6 -1 -9 -11 -7 -9 -9 -9 -11 -8 -3 -4 -4 -5 -5 -6 -5 -4 -2 -5 -3 -4
-24 -21 -16 -12 -12 -17 -19 -14 -11 -9 -5 -2 -3 -13 -26 -32 -32 -29 -2 2 -10 -16 -7 -10 -10 -7 -2 -6 -7 -8 -6 -6 -7 -8 -7 -3 -3 -4 -3 -2 -3 -3 -4 -3 -4 -4 -3
-0 0 0 0 -0 -1 -3 -9 -7 -8 -3 -4 -4 -2 -8 -18 -33 -33 -33 -4 -3 -12 -6 -8 -7 -2 -3 -5 -7 -7 -5 -3 -3 -3 -2 -4 -3 -2 -1 -2 -1 -3 -3 -5 -4 -2 -3
0 1 1 0 0 0 -0 -0 -1 -1 -1 -1 -4 -13 -24 -30 -35 -30 -22 -5 0 3 1 -4 -3 -5 -9 -6 -4 -5 -4 -3 -3 -2 -0 -2 -0 0 -2 -3 -6 -6 -5 -4 -5 -4 -3
0 0 0 0 -0 -1 0 -1 -1 -2 -3 -2 -2 -4 -4 -12 -30 -23 -2 5 1 1 2 -1 -2 -3 -6 -5 -4 -3 -3 -2 -2 1 -2 0 1 -3 -4 -5 -4 -5 -4 -4 -5 -4 -3
-0 -1 -1 -1 -1 -1 -1 -1 -1 -1 -1 -3 -8 -9 -11 -9 -27 3 5 5 2 0 4 -1 -4 -4 -4 -6 -4 -3 -3 -3 -2 -1 -1 -2 -1 -3 -2 -3 -3 -3 -3 -3 -3 -2 -3
-1 -0 -2 -1 -2 -2 -1 -1 -1 -1 -1 -1 -7 -14 -10 -4 -9 -3 -6 5 5 4 4 -4 -3 -3 -4 -5 -4 -6 -4 -4 -3 -2 -2 -2 -4 -3 -1 -1 -3 -1 -4 -3 -3 -2 1
-2 -2 -1 -2 -2 -2 -1 -1 -1 -1 -2 -3 -4 -6 -8 -14 -5 -1 -3 -4 2 4 6 -7 -5 -5 -4 -5 -6 -5 -5 -4 -4 -3 -2 -1 -2 -3 -1 -2 -4 -2 -3 -2 -2 -1 -0
-1 -1 -1 -2 -2 -1 -2 -1 -1 -2 -2 -3 -5 -7 -7 -9 -10 -9 -2 1 1 5 4 -4 -2 -2 -3 -4 -4 -2 -3 -4 -4 -2 -3 -3 -3 -2 -2 -3 -2 -2 -2 -2 -2 0 5
-1 -1 -2 -2 -1 -2 -1 -2 -1 -2 -2 -2 -7 -9 -7 -3 -3 -5 -3 -1 4 5 -5 -6 -2 -2 -1 -2 -2 -1 -0 -1 0 1 0 -2 -1 -2 -2 -0 -1 -1 1 6 6 6 3
-2 -1 -1 -2 -1 -2 -2 -2 -2 -2 -2 -4 -5 -12 -11 -5 -3 -3 -1 -1 1 -4 2 -7 -5 -7 -1 -1 -2 -1 0 1 -1 -2 1 2 4 0 -2 -0 2 0 -0 6 7 8 6
-1 -1 -1 -1 -1 -1 -2 -2 -2 -4 -3 -3 -3 -13 -7 -2 -1 -1 -1 1 -2 -12 -16 -5 -0 -3 0 -1 -1 -2 -0 -0 -1 -2 0 2 1 -2 -2 -3 -2 1 2 -2 2 1 4
-1 -1 -2 -2 -2 -2 -2 -2 -1 -1 -2 -3 -3 -4 -7 -1 -3 -6 -0 -0 -3 -6 -2 -1 -1 4 5 -3 0 -1 -0 -1 -1 -3 -4 -2 3 -0 -1 -2 -2 -1 -2 1 2 6 6
-1 -1 -1 -2 -3 -4 -4 -4 -2 -2 -2 -3 -3 -4 -8 -7 -7 -3 -1 -2 -1 -2 -2 2 -1 1 4 5 3 -0 -1 -2 -3 -2 -3 -3 -0 1 -1 1 1 1 1 -0 -0 2 5
-1 -2 -2 -2 -4 -5 -5 -3 -3 -2 -2 -2 -2 -3 -7 -8 -4 -3 -1 0 -3 -3 -1 -1 -0 1 2 4 5 3 1 -1 -2 -2 -1 -3 -1 3 2 -2 -2 -2 -1 -1 3 3 3
-2 -2 -2 -3 -4 -4 -3 -2 -2 -2 -2 -1 -2 -4 -9 -8 -2 -2 -4 -6 -6 -3 -1 1 1 1 -1 4 6 4 0 -2 -1 -0 2 0 1 3 3 0 -2 0 -1 -2 -2 -1 3
-2 -2 -2 -4 -5 -8 -8 -7 -2 -2 -1 -2 -2 -2 -9 -9 -8 -4 -4 -7 -7 -9 -2 -2 -1 -3 -1 -1 0 5 3 -0 -1 0 2 1 1 1 3 2 1 1 0 -1 -1 2 1
-3 -2 -4 -3 -3 -5 -6 -7 -8 -4 -3 -2 -2 -2 -7 -4 -7 -5 -5 -6 -6 -8 -2 -4 -1 -4 -1 -0 -2 0 3 3 2 1 1 3 5 2 2 1 0 0 0 0 1 -0 2
-2 -3 -3 -3 -3 -5 -6 -8 -8 -6 -4 -2 -2 -2 -4 -6 -6 -6 -6 -6 -8 -7 -9 -7 -6 -7 -5 -0 -1 -0 -0 -1 2 3 1 3 5 3 3 1 1 1 1 -0 -0 -0 -0
-5 -3 -3 -3 -3 -8 -8 -5 -4 -4 -2 -1 -1 -2 -2 -4 -6 -6 -6 -8 -8 -9 -10 -12 -10 -8 -7 -6 -8 -7 -6 -2 0 2 4 4 5 4 4 3 2 5 2 1 0 -1 -1
-6 -3 -3 -2 -3 -4 -8 -11 -6 -6 -5 -1 -2 -2 -2 -2 -5 -6 -8 -9 -9 -8 -7 -9 -11 -9 -8 -7 -6 -3 -3 -4 -2 2 2 4 5 5 5 5 6 2 -2 -1 -0 -1 -2
-6 -3 -3 -2 -3 -4 -3 -4 -5 -5 -4 -1 -2 -2 -3 -2 -6 -7 -8 -8 -9 -9 -9 -8 -10 -11 -11 -5 -1 -1 -1 3 2 1 3 2 4 6 6 7 5 3 -0 0 1 1 -1
-6 -4 -4 -3 -4 -4 -4 -3 -3 -5 -4 -2 -2 -2 -2 -2 -4 -6 -7 -9 -6 -6 -7 -9 -10 -10 -10 -3 -0 2 1 -1 3 3 3 3 3 5 6 6 7 2 -1 -2 -1 3 -1
-12 -4 -4 -4 -4 -4 -4 -2 -3 -2 -4 -3 -2 -2 -2 -3 -4 -5 -6 -6 -8 -6 -5 -7 -8 -7 -9 -4 -1 -1 0 -2 2 2 3 3 4 5 5 5 4 1 -1 -2 4 2 -3
-17 -5 -5 -6 -4 -4 -4 -4 -2 -2 -3 -4 -5 -2 -2 -2 -3 -5 -6 -6 -6 -6 -4 -6 -5 -8 -4 -1 -0 -1 0 -0 0 0 1 2 4 5 5 6 6 -2 -2 0 -2 -5 -3
-16 -7 -10 -7 -3 -3 -4 -4 -2 -2 -3 -4 -5 -4 -2 -2 -3 -4 -4 -4 -5 -5 -4 -5 -5 -6 -7 -4 -3 -2 -3 -4 -2 0 0 2 1 2 2 4 1 -3 -2 -3 -3 -4 -4
Wind_Speed
22 24 25 25 25 26 25 26 26 25 24 22 20 21 21 21 20 20 23 24 24 21 18 18 17 15 14 13 23 20 19 7 12 20 20 17 16 18 8 7 16 7 5 16 7 4 8
24 26 28 28 28 27 27 27 28 28 28 27 28 27 25 22 22 23 21 22 26 26 22 17 16 15 15 17 19 23 21 20 18 18 20 20 11 22 13 15 9 1 8 16 7 9 8
28 27 27 27 28 27 27 28 30 30 29 28 29 29 30 28 27 26 25 25 23 24 24 20 16 16 19 34 14 19 20 20 18 18 19 17 22 15 6 7 14 3 4 8 9 12 7
30 30 32 32 31 31 30 30 29 28 26 29 33 33 33 34 33 27 29 28 26 23 19 22 16 15 18 18 18 28 25 17 18 17 16 12 15 15 15 1 2 2 3 3 9 12 6
31 30 30 29 28 28 28 29 30 30 29 30 32 32 33 35 36 35 30 27 27 22 17 18 15 14 18 14 29 29 28 22 17 16 16 16 12 9 5 3 4 8 6 11 6 16 7
28 27 28 29 30 31 28 27 28 29 31 32 33 35 36 36 35 35 32 29 24 18 13 11 13 5 22 17 21 26 28 19 14 15 10 10 9 6 5 8 11 8 13 9 9 12 10
26 24 25 27 29 31 29 31 31 30 31 31 31 32 34 35 37 36 28 22 9 7 16 17 18 14 12 13 13 16 26 25 17 18 9 20 7 16 20 20 16 12 12 7 9 12 9
28 28 29 29 31 32 30 32 33 33 34 34 36 37 37 37 29 29 9 7 9 10 14 28 35 35 30 13 9 15 26 20 18 16 12 7 20 18 14 16 19 18 17 15 9 5 6
28 30 29 30 32 30 31 30 31 33 34 36 39 40 39 36 31 5 9 13 10 8 10 17 33 35 37 38 25 25 32 21 15 18 17 17 5 21 16 18 16 14 17 12 9 5 6
29 28 31 30 32 32 31 31 33 34 35 36 39 40 39 38 20 16 18 5 12 10 6 11 11 17 32 24 20 41 42 22 9 22 21 15 20 11 13 21 15 16 9 10 9 3 5
30 31 32 33 34 31 31 33 34 34 36 38 40 41 41 35 32 20 20 24 21 7 6 7 12 7 5 26 8 23 52 37 19 11 12 13 13 20 18 16 16 10 3 4 7 5 3
31 32 31 34 34 34 32 33 34 35 35 37 39 42 44 42 29 22 16 20 23 8 8 8 7 5 2 21 7 4 22 25 9 9 13 15 4 5 13 5 7 11 6 4 2 2 5
32 31 34 34 34 34 32 34 34 37 36 39 43 44 44 32 29 23 19 16 6 9 11 18 7 8 8 7 10 7 11 20 12 10 18 17 9 4 6 6 5 7 8 2 2 2 8
35 32 32 34 34 35 34 33 34 35 35 37 40 42 44 22 20 15 10 4 8 12 18 19 8 28 16 13 13 15 9 14 21 13 4 12 7 13 10 9 9 11 10 6 7 5 4
33 34 35 36 36 36 37 36 36 35 36 37 39 39 32 14 11 10 9 5 5 9 14 18 27 22 10 10 9 15 19 18 13 26 8 10 10 6 14 7 14 6 13 8 6 4 2
33 34 36 37 38 38 38 37 36 35 34 33 36 29 20 12 16 21 3 10 11 13 25 27 27 9 21 21 13 9 12 12 22 22 23 4 4 1 4 5 4 6 8 3 3 5 6
37 39 40 40 40 41 40 39 36 34 33 30 25 14 15 15 21 14 4 6 11 16 16 8 21 17 14 19 23 15 10 7 17 20 24 14 3 2 6 8 13 4 5 6 5 6 5
37 38 40 41 42 42 41 38 36 33 32 26 11 5 13 20 10 7 4 6 21 14 19 7 15 16 17 23 9 12 19 20 6 8 21 22 4 5 8 1 12 11 8 9 4 5 5
38 39 40 42 43 42 41 39 36 33 28 27 6 12 20 13 4 6 9 11 10 13 13 7 7 14 25 13 6 11 6 2 4 6 3 5 8 5 4 2 2 7 11 13 12 4 7
39 40 40 42 41 43 43 40 37 34 28 29 5 3 6 7 8 4 7 11 15 15 5 10 10 11 18 19 16 6 7 3 6 5 14 14 5 13 9 4 8 7 14 20 16 6 11
38 39 39 38 40 45 44 38 34 31 27 27 6 4 7 3 7 8 8 10 14 16 2 10 4 17 14 10 15 12 12 14 12 8 5 6 5 5 9 8 3 3 11 19 21 21 9
36 35 36 37 39 45 44 36 31 30 29 26 11 5 4 11 13 12 9 9 13 11 14 11 12 17 12 8 13 18 19 13 10 9 4 8 4 5 6 12 2 3 6 13 20 19 17
33 33 35 36 37 40 41 37 34 33 27 23 22 23 13 8 4 6 9 11 10 12 7 17 15 16 16 16 21 26 29 26 18 13 6 6 4 3 5 3 9 4 13 11 7 7 15
32 33 34 35 38 39 40 38 37 35 30 27 26 12 5 2 7 8 11 13 14 13 13 12 21 14 13 29 31 27 29 23 18 17 15 6 7 3 5 2 10 7 3 13 18 16 15
32 33 34 35 38 39 39 38 37 35 37 31 37 21 8 3 8 12 14 11 16 18 12 18 17 20 24 20 7 9 5 3 5 13 17 9 4 3 4 6 5 7 4 7 9 10 14
33 34 35 36 38 42 41 36 36 36 34 34 23 18 7 1 5 17 13 14 7 10 10 12 20 20 22 3 4 3 2 3 4 7 14 13 12 7 3 3 5 3 9 10 5 11 8
34 34 36 37 38 41 39 38 36 34 32 31 25 17 15 5 14 14 6 6 6 8 7 12 13 21 12 2 3 3 3 2 4 6 6 11 9 12 12 7 5 7 7 23 4 6 5
35 35 37 39 39 40 40 37 36 32 29 28 29 21 15 8 16 21 17 15 13 13 7 13 10 2 4 3 3 5 4 4 4 5 3 5 5 5 6 6 9 3 4 6 3 2 3
36 37 39 41 39 39 40 37 35 31 26 25 24 21 19 20 14 19 18 22 25 28 24 14 10 7 5 3 3 3 4 2 4 4 3 2 2 3 5 5 13 21 17 15 6 2 3
Wind_Direction
351 350 349 347 345 344 346 338 334 333 335 337 332 327 325 325 325 323 321 319 316 298 270 268 266 259 263 248 241 251 276 256 220 227 230 209 211 213 231 229 229 208 271 283 256 247 250
352 350 347 344 341 337 337 338 338 338 337 333 324 321 321 318 317 318 315 314 314 309 286 262 258 254 241 251 266 247 246 251 242 225 222 203 219 226 265 249 238 221 266 258 221 233 240
6 2 359 355 354 351 343 336 332 330 331 336 330 325 320 316 314 313 311 312 309 306 293 271 255 248 249 242 245 254 240 241 230 230 211 229 224 260 243 266 260 273 283 254 240 211 242
7 4 2 358 356 356 352 350 347 342 335 331 328 324 320 317 315 310 309 309 307 304 289 272 254 252 256 250 242 241 250 224 218 222 221 215 238 253 253 353 22 232 232 246 216 181 209
4 0 358 357 355 354 350 348 345 342 342 339 333 325 317 313 311 310 310 305 304 299 283 261 244 241 271 256 228 223 229 219 218 207 211 216 214 233 196 219 246 205 243 220 277 173 142
7 5 3 360 358 357 355 347 344 341 340 337 334 331 328 321 317 315 310 307 305 284 252 236 228 222 258 255 237 210 215 190 179 179 166 177 191 205 191 192 215 224 217 240 237 192 182
3 3 359 358 355 353 352 349 348 345 342 339 332 324 316 313 317 325 317 323 299 270 205 200 194 203 301 219 210 208 184 183 187 175 192 187 184 204 207 214 229 270 265 261 258 155 161
359 356 355 354 351 348 348 346 346 345 343 340 337 333 328 322 316 324 320 303 279 274 290 244 243 245 243 253 260 218 185 174 185 200 212 177 219 211 212 222 226 237 256 264 287 174 181
357 354 353 350 348 349 346 347 345 342 342 341 342 339 332 324 323 306 305 298 312 300 256 254 240 240 234 224 223 209 192 204 186 192 199 215 212 209 218 230 242 234 232 252 232 168 230
355 351 348 347 345 343 342 341 339 339 338 339 342 342 340 336 333 302 297 311 333 300 267 261 214 242 221 209 228 215 206 192 217 205 201 228 229 223 205 223 225 238 241 234 260 245 237
353 348 347 345 340 342 335 337 335 333 333 334 336 336 337 334 310 303 303 312 299 296 239 267 227 233 168 187 126 208 208 204 220 198 178 208 184 211 225 222 209 227 93 256 211 234 282
346 345 342 341 340 337 334 332 333 332 331 332 331 332 334 333 312 306 316 302 309 222 237 234 121 161 189 203 227 41 171 203 237 237 238 222 113 182 218 199 192 130 98 71 20 202 251
342 341 340 340 338 335 334 332 328 328 327 328 328 327 329 328 297 306 310 313 258 236 212 257 207 169 202 220 242 191 194 200 187 189 220 213 185 123 133 99 129 133 133 198 269 210 236
343 341 335 332 330 329 328 326 328 328 328 327 329 325 332 340 330 314 294 254 242 276 255 283 292 223 200 172 221 201 189 214 223 234 167 199 202 164 193 187 165 199 172 167 204 198 232
340 335 334 332 332 330 329 327 325 323 325 327 327 327 334 339 356 337 253 225 236 242 275 258 299 271 197 220 200 193 210 223 220 224 213 193 234 143 169 177 150 185 214 229 329 344 75
335 335 333 332 329 327 327 325 323 324 323 327 329 328 317 318 320 319 276 238 249 292 321 309 296 298 308 270 216 185 194 224 230 211 224 246 174 301 62 73 306 153 155 167 236 195 233
334 332 331 329 329 329 327 326 322 320 322 324 326 313 294 292 331 292 245 267 309 332 338 328 293 278 293 282 293 195 187 239 218 220 205 226 201 122 118 219 171 136 205 212 181 202 184
331 331 330 330 331 330 327 324 322 320 319 317 306 277 287 318 309 289 292 21 317 322 329 309 306 283 299 278 287 251 203 215 78 291 195 208 231 165 199 46 218 210 202 194 150 211 209
333 333 333 333 333 333 330 326 322 318 314 303 249 275 312 299 281 324 307 322 319 344 343 342 319 355 341 282 250 258 238 62 56 90 40 359 206 240 128 109 351 220 212 221 238 304 201
337 338 336 334 338 338 334 327 323 321 311 301 239 274 288 296 283 277 350 327 331 321 332 335 310 8 352 316 353 296 323 32 22 51 70 32 280 221 209 194 144 194 205 210 211 223 231
340 338 339 340 342 342 338 331 327 323 322 320 200 243 250 277 290 318 307 303 309 322 4 344 309 1 352 323 325 358 337 342 300 108 62 106 278 347 328 346 104 203 206 207 212 223 201
338 340 341 342 342 348 348 344 335 330 324 310 251 200 253 263 278 289 299 284 311 352 336 327 317 330 326 290 305 307 314 316 294 9 126 158 220 352 311 333 337 260 279 208 219 228 242
342 344 344 345 346 349 350 350 345 339 331 302 277 254 205 232 261 271 268 286 298 310 291 310 306 312 309 300 305 291 281 271 255 277 254 167 158 137 261 340 300 264 233 236 236 209 215
343 342 341 343 345 347 349 346 344 344 338 320 316 270 197 206 230 247 276 293 299 312 307 306 307 318 303 312 305 290 270 262 246 244 244 191 184 140 259 83 247 245 212 222 226 229 222
340 339 341 340 344 346 344 344 343 342 346 325 313 246 174 226 238 269 275 274 309 298 315 305 300 321 319 320 298 299 307 323 246 231 220 205 146 180 209 186 331 294 237 196 177 242 227
340 337 339 339 343 341 341 339 338 344 345 338 331 287 207 129 246 254 275 273 297 303 293 293 316 308 320 301 284 274 310 248 322 300 204 197 206 200 162 201 212 245 243 221 66 280 249
340 336 337 341 340 339 340 342 339 337 342 342 329 327 228 246 264 256 255 268 276 306 279 296 307 314 318 228 259 242 252 329 321 308 346 216 201 207 213 228 270 232 161 121 167 256 299
340 337 339 341 338 338 338 336 339 337 338 338 336 313 246 257 267 264 254 253 260 260 270 290 330 317 303 269 291 9 1 13 279 293 360 308 205 188 210 219 245 31 28 171 169 177 107
339 338 341 340 337 333 334 332 335 335 333 337 334 333 275 251 248 269 263 246 249 257 267 273 256 295 297 349 357 320 302 267 268 291 205 355 7 318 42 311 340 337 333 330 292 199 189
Height
1547 1544 1541 1538 1535 1532 1529 1526 1522 1519 1516 1512 1509 1506 1504 1501 1498 1495 1493 1491 1488 1484 1481 1480 1481 1482 1481 1478 1465 1465 1466 1469 1471 1473 1473 1475 1477 1477 1475 1469 1470 1469 1468 1467 1467 1468 1470
1547 1544 1541 1537 1534 1531 1527 1524 1520 1517 1514 1510 1506 1503 1501 1497 1494 1491 1488 1486 1484 1481 1479 1476 1477 1477 1476 1471 1463 1462 1462 1463 1466 1469 1471 1473 1473 1474 1470 1467 1467 1464 1466 1466 1464 1465 1467
1545 1542 1538 1535 1532 1530 1526 1523 1519 1515 1511 1506 1502 1499 1496 1493 1491 1487 1484 1481 1478 1475 1475 1474 1474 1473 1469 1452 1458 1457 1458 1458 1460 1461 1465 1471 1471 1473 1468 1467 1463 1463 1467 1464 1461 1464 1466
1546 1542 1538 1534 1531 1527 1523 1519 1515 1511 1508 1504 1500 1495 1491 1488 1485 1482 1479 1476 1473 1470 1467 1468 1470 1471 1455 1449 1449 1450 1453 1455 1455 1457 1460 1464 1468 1467 1466 1462 1461 1464 1466 1468 1450 1455 1461
1546 1542 1537 1534 1530 1526 1522 1517 1513 1509 1505 1501 1497 1491 1486 1481 1478 1476 1472 1469 1466 1464 1462 1463 1464 1467 1453 1441 1439 1442 1444 1449 1452 1453 1456 1460 1463 1465 1464 1466 1469 1464 1467 1464 1453 1448 1454
1545 1542 1538 1535 1531 1527 1523 1519 1513 1508 1503 1498 1493 1488 1481 1478 1473 1468 1465 1463 1460 1456 1456 1457 1460 1465 1448 1439 1434 1435 1438 1445 1450 1452 1453 1456 1459 1461 1462 1465 1468 1458 1462 1452 1449 1449 1450
1546 1541 1538 1534 1531 1526 1521 1516 1511 1506 1501 1495 1489 1484 1478 1473 1470 1465 1460 1459 1457 1454 1448 1440 1435 1430 1431 1435 1436 1432 1432 1438 1444 1450 1447 1446 1455 1451 1449 1451 1449 1444 1443 1443 1434 1431 1443
1547 1543 1539 1535 1530 1524 1519 1514 1509 1504 1498 1492 1486 1480 1474 1468 1465 1460 1458 1459 1458 1453 1442 1433 1430 1427 1425 1431 1433 1434 1433 1430 1431 1437 1441 1445 1436 1434 1438 1441 1443 1444 1443 1440 1435 1437 1440
1546 1542 1537 1532 1527 1523 1518 1513 1507 1502 1496 1491 1484 1477 1470 1462 1458 1457 1454 1454 1453 1450 1443 1415 1414 1410 1413 1419 1416 1420 1428 1423 1418 1423 1427 1429 1417 1424 1429 1430 1434 1433 1438 1439 1441 1440 1439
1545 1540 1536 1530 1525 1521 1515 1510 1505 1500 1495 1489 1483 1476 1468 1462 1458 1454 1452 1450 1448 1450 1436 1401 1396 1391 1398 1402 1400 1408 1409 1417 1412 1409 1414 1417 1416 1415 1420 1424 1425 1433 1426 1430 1435 1439 1455
1544 1540 1536 1530 1525 1520 1515 1509 1504 1499 1493 1486 1480 1474 1468 1463 1456 1456 1450 1445 1444 1445 1431 1384 1378 1382 1384 1388 1382 1384 1390 1405 1400 1401 1403 1397 1401 1408 1413 1411 1415 1421 1423 1426 1430 1437 1440
1542 1539 1534 1529 1524 1518 1512 1507 1500 1495 1488 1483 1476 1470 1463 1454 1450 1449 1447 1448 1445 1438 1418 1378 1373 1381 1385 1383 1380 1383 1387 1397 1396 1399 1393 1392 1395 1398 1399 1407 1410 1417 1427 1430 1432 1440 1460
1541 1537 1532 1527 1522 1516 1510 1506 1500 1494 1487 1481 1474 1467 1461 1454 1445 1445 1446 1446 1439 1414 1393 1380 1371 1373 1383 1383 1386 1386 1387 1389 1393 1405 1396 1389 1394 1395 1398 1412 1414 1416 1430 1456 1459 1459 1438
1539 1534 1530 1524 1518 1513 1507 1501 1496 1489 1483 1476 1469 1461 1454 1448 1445 1443 1444 1445 1442 1408 1402 1368 1363 1359 1363 1371 1375 1382 1386 1386 1384 1379 1386 1396 1407 1392 1391 1391 1408 1411 1413 1433 1434 1437 1424
1538 1534 1527 1521 1515 1509 1503 1498 1491 1485 1480 1475 1467 1458 1451 1448 1444 1443 1444 1438 1425 1405 1395 1395 1380 1372 1365 1364 1361 1368 1377 1378 1374 1378 1381 1384 1384 1371 1380 1384 1389 1410 1411 1399 1412 1405 1434
1535 1529 1523 1516 1511 1505 1498 1493 1488 1483 1477 1471 1464 1456 1447 1447 1442 1440 1440 1426 1416 1412 1410 1404 1402 1399 1386 1360 1365 1360 1365 1358 1362 1363 1364 1359 1376 1376 1384 1386 1386 1389 1393 1414 1418 1423 1416
1533 1526 1520 1513 1507 1501 1495 1489 1483 1478 1473 1469 1462 1457 1444 1442 1438 1434 1433 1423 1420 1419 1419 1415 1394 1398 1392 1384 1364 1346 1349 1353 1348 1350 1356 1357 1364 1390 1389 1386 1380 1394 1393 1389 1389 1396 1408
1528 1522 1516 1510 1503 1496 1490 1485 1479 1473 1469 1462 1461 1456 1441 1441 1440 1431 1427 1431 1428 1418 1416 1411 1399 1386 1386 1380 1364 1351 1340 1341 1342 1347 1350 1345 1356 1394 1382 1372 1372 1373 1374 1379 1397 1390 1397
1525 1518 1513 1505 1498 1491 1484 1478 1473 1468 1466 1460 1451 1447 1438 1439 1439 1433 1430 1427 1424 1419 1417 1413 1407 1402 1397 1373 1364 1360 1339 1344 1341 1344 1360 1366 1356 1374 1379 1379 1377 1375 1370 1369 1371 1376 1386
1523 1516 1509 1502 1493 1485 1479 1473 1468 1464 1459 1458 1448 1442 1438 1435 1433 1432 1432 1427 1422 1419 1418 1418 1414 1407 1404 1393 1366 1361 1348 1349 1348 1348 1350 1359 1357 1354 1352 1349 1359 1372 1364 1362 1367 1382 1372
1520 1514 1506 1498 1490 1481 1472 1466 1460 1457 1453 1449 1440 1441 1437 1436 1432 1431 1432 1429 1425 1420 1420 1416 1410 1412 1412 1401 1387 1377 1368 1363 1354 1353 1355 1361 1372 1356 1351 1348 1349 1351 1355 1357 1361 1355 1370
1516 1509 1504 1495 1487 1478 1469 1461 1456 1453 1449 1446 1439 1435 1436 1432 1430 1430 1428 1424 1420 1421 1421 1414 1413 1408 1412 1408 1403 1390 1387 1381 1371 1360 1356 1362 1365 1360 1356 1347 1350 1356 1353 1353 1353 1353 1358
1512 1507 1500 1492 1484 1476 1468 1461 1455 1449 1445 1437 1431 1430 1426 1428 1427 1426 1422 1417 1417 1417 1417 1415 1410 1405 1402 1398 1392 1385 1380 1373 1372 1371 1366 1360 1362 1360 1355 1354 1356 1360 1352 1353 1351 1350 1350
1509 1502 1497 1489 1481 1473 1467 1459 1454 1446 1443 1438 1433 1429 1422 1421 1423 1419 1416 1416 1414 1415 1413 1410 1407 1402 1398 1392 1383 1373 1364 1359 1359 1360 1362 1354 1354 1359 1356 1361 1362 1341 1336 1336 1340 1338 1340
1506 1500 1494 1488 1479 1472 1465 1458 1451 1444 1437 1431 1425 1422 1414 1416 1414 1414 1415 1412 1412 1411 1410 1408 1403 1402 1397 1391 1381 1368 1356 1347 1346 1349 1350 1349 1351 1354 1352 1349 1344 1340 1338 1336 1336 1337 1330
1506 1499 1492 1484 1477 1469 1462 1454 1448 1440 1434 1426 1419 1416 1412 1415 1411 1411 1412 1411 1411 1411 1406 1403 1401 1398 1396 1392 1383 1367 1364 1365 1353 1346 1342 1347 1345 1348 1350 1348 1341 1329 1323 1325 1332 1340 1327
1502 1495 1489 1481 1474 1467 1459 1452 1445 1438 1431 1427 1421 1418 1416 1413 1407 1410 1410 1410 1408 1408 1405 1400 1399 1394 1388 1389 1383 1372 1362 1355 1359 1357 1352 1342 1342 1337 1338 1340 1331 1318 1316 1316 1351 1341 1320
1498 1492 1486 1479 1471 1464 1456 1449 1442 1434 1429 1425 1420 1416 1414 1410 1403 1404 1406 1405 1405 1405 1405 1399 1400 1393 1390 1386 1379 1380 1371 1373 1371 1362 1359 1354 1336 1335 1339 1337 1337 1320 1322 1323 1319 1322 1321
1495 1487 1479 1471 1464 1458 1452 1445 1438 1433 1426 1422 1417 1415 1408 1408 1402 1399 1398 1398 1398 1398 1401 1399 1398 1396 1395 1396 1390 1387 1383 1381 1374 1366 1361 1352 1359 1352 1356 1338 1334 1334 1329 1323 1322 1321 1319